Data No.,UTC Date,UTC Time,Latitude,Longitude,Course(deg),Temp(degC)
25,2010/10/1,1:05:00,00-30.7500N,118-00.1600E,84,29.879
26,2010/10/1,1:06:00,00-30.7800N,118-00.3900E,84,29.865
27,2010/10/1,1:07:00,00-30.8000N,118-00.6200E,84,29.876
28,2010/10/1,1:08:00,00-30.8200N,118-00.8500E,83,29.88
29,2010/10/1,1:09:00,00-30.8500N,118-01.1000E,83,29.89
30,2010/10/1,1:10:00,00-30.8700N,118-01.3400E,84,29.899
31,2010/10/1,1:11:00,00-30.9000N,118-01.5700E,84,29.904
32,2010/10/1,1:12:00,00-30.9200N,118-01.8000E,84,29.905
33,2010/10/1,1:13:00,00-30.9400N,118-02.0300E,84,29.9
34,2010/10/1,1:14:00,00-30.9600N,118-02.2600E,84,29.898
35,2010/10/1,1:15:00,00-30.9900N,118-02.5000E,83,29.894
36,2010/10/1,1:16:00,00-31.0200N,118-02.7300E,81,29.896
37,2010/10/1,1:17:00,00-31.0500N,118-02.9600E,81,29.898
38,2010/10/1,1:18:00,00-31.0900N,118-03.1900E,81,29.899
39,2010/10/1,1:19:00,00-31.1300N,118-03.4300E,81,29.885
40,2010/10/1,1:20:00,00-31.1600N,118-03.6600E,81,29.88
41,2010/10/1,1:21:00,00-31.2000N,118-03.8900E,80,29.872
42,2010/10/1,1:22:00,00-31.2400N,118-04.1200E,80,29.869
43,2010/10/1,1:23:00,00-31.2700N,118-04.3500E,81,29.862
44,2010/10/1,1:24:00,00-31.3000N,118-04.5900E,82,29.849
45,2010/10/1,1:25:00,00-31.3400N,118-04.8200E,81,29.842
46,2010/10/1,1:26:00,00-31.3700N,118-05.0500E,81,29.823
47,2010/10/1,1:27:00,00-31.4100N,118-05.2900E,80,29.826
48,2010/10/1,1:28:00,00-31.4500N,118-05.5200E,79,29.81
49,2010/10/1,1:29:00,00-31.4900N,118-05.7500E,79,29.81
50,2010/10/1,1:30:00,00-31.5400N,118-06.0000E,79,29.812
51,2010/10/1,1:31:00,00-31.5800N,118-06.2300E,79,29.814
52,2010/10/1,1:32:00,00-31.6200N,118-06.4600E,79,29.807
53,2010/10/1,1:33:00,00-31.6700N,118-06.6900E,79,29.828
54,2010/10/1,1:34:00,00-31.7100N,118-06.9200E,79,29.843
55,2010/10/1,1:35:00,00-31.7500N,118-07.1500E,79,29.843
56,2010/10/1,1:36:00,00-31.7900N,118-07.3900E,80,29.83
57,2010/10/1,1:37:00,00-31.8300N,118-07.6200E,80,29.847
58,2010/10/1,1:38:00,00-31.8700N,118-07.8600E,80,29.842
59,2010/10/1,1:39:00,00-31.9100N,118-08.1000E,80,29.82
60,2010/10/1,1:40:00,00-31.9500N,118-08.3400E,80,29.822
61,2010/10/1,1:41:00,00-31.9900N,118-08.5700E,80,29.857
62,2010/10/1,1:42:00,00-32.0300N,118-08.8100E,80,29.881
63,2010/10/1,1:43:00,00-32.0700N,118-09.0500E,80,29.866
64,2010/10/1,1:44:00,00-32.1200N,118-09.2800E,79,29.854
65,2010/10/1,1:45:00,00-32.1600N,118-09.5200E,79,29.828
66,2010/10/1,1:46:00,00-32.2000N,118-09.7500E,79,29.849
67,2010/10/1,1:47:00,00-32.2400N,118-09.9900E,80,29.84
68,2010/10/1,1:48:00,00-32.2800N,118-10.2300E,80,29.856
69,2010/10/1,1:49:00,00-32.3200N,118-10.4700E,81,29.867
70,2010/10/1,1:50:00,00-32.3600N,118-10.7000E,80,29.86
71,2010/10/1,1:51:00,00-32.4000N,118-10.9400E,80,29.814
72,2010/10/1,1:52:00,00-32.4400N,118-11.2000E,80,29.834
73,2010/10/1,1:53:00,00-32.4800N,118-11.4400E,80,29.873
74,2010/10/1,1:54:00,00-32.5200N,118-11.6700E,80,29.884
75,2010/10/1,1:55:00,00-32.5600N,118-11.9000E,80,29.873
76,2010/10/1,1:56:00,00-32.6000N,118-12.1400E,80,29.864
77,2010/10/1,1:57:00,00-32.6400N,118-12.3700E,79,29.902
78,2010/10/1,1:58:00,00-32.6800N,118-12.6100E,79,29.89
79,2010/10/1,1:59:00,00-32.7200N,118-12.8400E,80,29.89
80,2010/10/1,2:00:00,00-32.7600N,118-13.0700E,80,29.895
81,2010/10/1,2:01:00,00-32.8100N,118-13.3100E,80,29.899
82,2010/10/1,2:02:00,00-32.8500N,118-13.5400E,79,29.908
83,2010/10/1,2:03:00,00-32.8900N,118-13.7800E,80,29.916
84,2010/10/1,2:04:00,00-32.9300N,118-14.0100E,80,29.937
85,2010/10/1,2:05:00,00-32.9700N,118-14.2500E,80,29.935
86,2010/10/1,2:06:00,00-33.0100N,118-14.4900E,80,29.943
87,2010/10/1,2:07:00,00-33.0500N,118-14.7300E,79,29.931
88,2010/10/1,2:08:00,00-33.0800N,118-14.9700E,82,29.942
89,2010/10/1,2:09:00,00-33.1100N,118-15.2000E,84,29.945
90,2010/10/1,2:10:00,00-33.1300N,118-15.4400E,85,29.935
91,2010/10/1,2:11:00,00-33.1500N,118-15.6900E,85,29.91
92,2010/10/1,2:12:00,00-33.1700N,118-15.9300E,85,29.89
93,2010/10/1,2:13:00,00-33.1900N,118-16.1900E,84,29.896
94,2010/10/1,2:14:00,00-33.2200N,118-16.4300E,84,29.908
95,2010/10/1,2:15:00,00-33.2400N,118-16.6700E,84,29.915
96,2010/10/1,2:16:00,00-33.2600N,118-16.9100E,85,29.907
97,2010/10/1,2:17:00,00-33.2800N,118-17.1500E,85,29.893
98,2010/10/1,2:18:00,00-33.3000N,118-17.4000E,85,29.889
99,2010/10/1,2:19:00,00-33.3100N,118-17.6500E,85,29.915
100,2010/10/1,2:20:00,00-33.3300N,118-17.8900E,85,29.944
101,2010/10/1,2:21:00,00-33.3500N,118-18.1400E,88,29.945
102,2010/10/1,2:22:00,00-33.3500N,118-18.3800E,88,29.95
103,2010/10/1,2:23:00,00-33.3600N,118-18.6300E,88,29.946
104,2010/10/1,2:24:00,00-33.3700N,118-18.8700E,87,29.948
105,2010/10/1,2:25:00,00-33.3800N,118-19.1200E,87,29.952
106,2010/10/1,2:26:00,00-33.3900N,118-19.3600E,87,29.954
107,2010/10/1,2:27:00,00-33.4000N,118-19.6100E,88,29.949
108,2010/10/1,2:28:00,00-33.4000N,118-19.8600E,87,29.959
109,2010/10/1,2:29:00,00-33.4100N,118-20.1000E,87,29.969
110,2010/10/1,2:30:00,00-33.4200N,118-20.3400E,87,29.979
111,2010/10/1,2:31:00,00-33.4300N,118-20.5900E,87,29.979
112,2010/10/1,2:32:00,00-33.4500N,118-20.8300E,87,29.98
113,2010/10/1,2:33:00,00-33.4600N,118-21.0800E,87,29.96
114,2010/10/1,2:34:00,00-33.4700N,118-21.3200E,87,29.946
115,2010/10/1,2:35:00,00-33.4800N,118-21.5800E,87,29.941
116,2010/10/1,2:36:00,00-33.4900N,118-21.8300E,88,29.934
117,2010/10/1,2:37:00,00-33.5000N,118-22.0700E,87,29.929
118,2010/10/1,2:38:00,00-33.5100N,118-22.3100E,87,29.931
119,2010/10/1,2:39:00,00-33.5200N,118-22.5500E,88,29.919
120,2010/10/1,2:40:00,00-33.5300N,118-22.7900E,87,29.912
121,2010/10/1,2:41:00,00-33.5300N,118-23.0400E,88,29.902
122,2010/10/1,2:42:00,00-33.5400N,118-23.2800E,86,29.885
123,2010/10/1,2:43:00,00-33.5700N,118-23.5100E,81,29.89
124,2010/10/1,2:44:00,00-33.6100N,118-23.7500E,80,29.882
125,2010/10/1,2:45:00,00-33.6500N,118-23.9900E,81,29.872
126,2010/10/1,2:46:00,00-33.6900N,118-24.2200E,81,29.858
127,2010/10/1,2:47:00,00-33.7300N,118-24.4600E,80,29.864
128,2010/10/1,2:48:00,00-33.7700N,118-24.6900E,80,29.869
129,2010/10/1,2:49:00,00-33.8100N,118-24.9300E,80,29.866
130,2010/10/1,2:50:00,00-33.8500N,118-25.1600E,80,29.85
131,2010/10/1,2:51:00,00-33.8800N,118-25.4000E,81,29.831
132,2010/10/1,2:52:00,00-33.9200N,118-25.6400E,80,29.807
133,2010/10/1,2:53:00,00-33.9700N,118-25.8700E,78,29.799
134,2010/10/1,2:54:00,00-34.0200N,118-26.1000E,77,29.793
135,2010/10/1,2:55:00,00-34.0700N,118-26.3300E,77,29.781
136,2010/10/1,2:56:00,00-34.1200N,118-26.5900E,78,29.777
137,2010/10/1,2:57:00,00-34.1700N,118-26.8200E,78,29.768
138,2010/10/1,2:58:00,00-34.2100N,118-27.0500E,77,29.764
139,2010/10/1,2:59:00,00-34.2600N,118-27.2700E,77,29.761
140,2010/10/1,3:00:00,00-34.3100N,118-27.5100E,78,29.758
141,2010/10/1,3:01:00,00-34.3600N,118-27.7400E,78,29.762
142,2010/10/1,3:02:00,00-34.4100N,118-27.9700E,77,29.77
143,2010/10/1,3:03:00,00-34.4700N,118-28.1900E,74,29.775
144,2010/10/1,3:04:00,00-34.5300N,118-28.4200E,74,29.759
145,2010/10/1,3:05:00,00-34.6000N,118-28.6400E,74,29.758
146,2010/10/1,3:06:00,00-34.6600N,118-28.8700E,74,29.766
147,2010/10/1,3:07:00,00-34.7200N,118-29.0900E,75,29.77
148,2010/10/1,3:08:00,00-34.7800N,118-29.3200E,74,29.771
149,2010/10/1,3:09:00,00-34.8400N,118-29.5400E,74,29.762
150,2010/10/1,3:10:00,00-34.9100N,118-29.7700E,74,29.746
151,2010/10/1,3:11:00,00-34.9700N,118-29.9900E,73,29.746
152,2010/10/1,3:12:00,00-35.0400N,118-30.2200E,74,29.741
153,2010/10/1,3:13:00,00-35.1000N,118-30.4500E,74,29.742
154,2010/10/1,3:14:00,00-35.1700N,118-30.6700E,74,29.735
155,2010/10/1,3:15:00,00-35.2300N,118-30.9000E,74,29.726
156,2010/10/1,3:16:00,00-35.2900N,118-31.1300E,74,29.735
157,2010/10/1,3:17:00,00-35.3500N,118-31.3600E,75,29.734
158,2010/10/1,3:18:00,00-35.4200N,118-31.6000E,75,29.722
159,2010/10/1,3:19:00,00-35.4800N,118-31.8300E,74,29.725
160,2010/10/1,3:20:00,00-35.5400N,118-32.0600E,74,29.705
161,2010/10/1,3:21:00,00-35.6000N,118-32.2800E,76,29.713
162,2010/10/1,3:22:00,00-35.6400N,118-32.5200E,80,29.718
163,2010/10/1,3:23:00,00-35.6800N,118-32.7500E,81,29.721
164,2010/10/1,3:24:00,00-35.7200N,118-32.9800E,80,29.718
165,2010/10/1,3:25:00,00-35.7600N,118-33.2100E,80,29.717
166,2010/10/1,3:26:00,00-35.8000N,118-33.4400E,80,29.696
167,2010/10/1,3:27:00,00-35.8400N,118-33.6700E,79,29.698
168,2010/10/1,3:28:00,00-35.8800N,118-33.9100E,79,29.73
169,2010/10/1,3:29:00,00-35.9300N,118-34.1500E,80,29.745
170,2010/10/1,3:30:00,00-35.9700N,118-34.3800E,80,29.739
171,2010/10/1,3:31:00,00-36.0100N,118-34.6200E,80,29.746
172,2010/10/1,3:32:00,00-36.0500N,118-34.8600E,79,29.748
173,2010/10/1,3:33:00,00-36.1000N,118-35.1100E,78,29.721
174,2010/10/1,3:34:00,00-36.1400N,118-35.3400E,78,29.72
175,2010/10/1,3:35:00,00-36.1900N,118-35.5900E,79,29.709
176,2010/10/1,3:36:00,00-36.2300N,118-35.8300E,79,29.722
177,2010/10/1,3:37:00,00-36.2800N,118-36.0800E,77,29.694
178,2010/10/1,3:38:00,00-36.3400N,118-36.3200E,76,29.632
179,2010/10/1,3:39:00,00-36.4000N,118-36.5800E,77,29.646
180,2010/10/1,3:40:00,00-36.4500N,118-36.8300E,78,29.624
181,2010/10/1,3:41:00,00-36.5000N,118-37.0700E,77,29.584
182,2010/10/1,3:42:00,00-36.5600N,118-37.3200E,76,29.575
183,2010/10/1,3:43:00,00-36.6200N,118-37.5600E,77,29.585
184,2010/10/1,3:44:00,00-36.6700N,118-37.8000E,78,29.558
185,2010/10/1,3:45:00,00-36.7300N,118-38.0500E,77,29.516
186,2010/10/1,3:46:00,00-36.7800N,118-38.2800E,77,29.509
187,2010/10/1,3:47:00,00-36.8300N,118-38.5300E,77,29.532
188,2010/10/1,3:48:00,00-36.8900N,118-38.7600E,77,29.64
189,2010/10/1,3:49:00,00-36.9400N,118-38.9900E,77,29.662
190,2010/10/1,3:50:00,00-36.9900N,118-39.2300E,77,29.667
191,2010/10/1,3:51:00,00-37.0500N,118-39.4700E,76,29.675
192,2010/10/1,3:52:00,00-37.1000N,118-39.7000E,75,29.662
193,2010/10/1,3:53:00,00-37.1700N,118-39.9200E,73,29.661
194,2010/10/1,3:54:00,00-37.2400N,118-40.1500E,71,29.645
195,2010/10/1,3:55:00,00-37.3100N,118-40.3600E,73,29.665
196,2010/10/1,3:56:00,00-37.3600N,118-40.5800E,76,29.648
197,2010/10/1,3:57:00,00-37.4200N,118-40.8100E,76,29.651
198,2010/10/1,3:58:00,00-37.4700N,118-41.0200E,75,29.666
199,2010/10/1,3:59:00,00-37.5300N,118-41.2500E,75,29.648
200,2010/10/1,4:00:00,00-37.5900N,118-41.4900E,73,29.647
201,2010/10/1,4:01:00,00-37.6600N,118-41.7100E,72,29.631
202,2010/10/1,4:02:00,00-37.7300N,118-41.9200E,72,29.629
203,2010/10/1,4:03:00,00-37.8000N,118-42.1400E,72,29.63
204,2010/10/1,4:04:00,00-37.8700N,118-42.3500E,72,29.623
205,2010/10/1,4:05:00,00-37.9400N,118-42.5700E,69,29.604
206,2010/10/1,4:06:00,00-38.0300N,118-42.7800E,68,29.612
207,2010/10/1,4:07:00,00-38.1100N,118-42.9900E,68,29.62
208,2010/10/1,4:08:00,00-38.1900N,118-43.2000E,68,29.615
209,2010/10/1,4:09:00,00-38.2700N,118-43.4100E,69,29.608
210,2010/10/1,4:10:00,00-38.3500N,118-43.6300E,70,29.594
211,2010/10/1,4:11:00,00-38.4300N,118-43.8400E,69,29.578
212,2010/10/1,4:12:00,00-38.5100N,118-44.0600E,68,29.593
213,2010/10/1,4:13:00,00-38.5900N,118-44.2700E,69,29.591
214,2010/10/1,4:14:00,00-38.6700N,118-44.4800E,70,29.608
215,2010/10/1,4:15:00,00-38.7400N,118-44.7000E,70,29.616
216,2010/10/1,4:16:00,00-38.8200N,118-44.9200E,69,29.606
217,2010/10/1,4:17:00,00-38.9100N,118-45.1300E,68,29.596
218,2010/10/1,4:18:00,00-38.9900N,118-45.3400E,68,29.584
219,2010/10/1,4:19:00,00-39.0700N,118-45.5500E,69,29.591
220,2010/10/1,4:20:00,00-39.1400N,118-45.7700E,74,29.601
221,2010/10/1,4:21:00,00-39.1900N,118-45.9900E,77,29.6
222,2010/10/1,4:22:00,00-39.2500N,118-46.2300E,76,29.602
223,2010/10/1,4:23:00,00-39.3000N,118-46.4500E,75,29.616
224,2010/10/1,4:24:00,00-39.3600N,118-46.6800E,75,29.659
225,2010/10/1,4:25:00,00-39.4200N,118-46.9000E,75,29.704
226,2010/10/1,4:26:00,00-39.4700N,118-47.1300E,75,29.721
227,2010/10/1,4:27:00,00-39.5300N,118-47.3500E,75,29.722
228,2010/10/1,4:28:00,00-39.5900N,118-47.5800E,75,29.718
229,2010/10/1,4:29:00,00-39.6500N,118-47.8000E,75,29.719
230,2010/10/1,4:30:00,00-39.7100N,118-48.0300E,74,29.719
231,2010/10/1,4:31:00,00-39.7700N,118-48.2500E,75,29.717
232,2010/10/1,4:32:00,00-39.8300N,118-48.4800E,75,29.716
233,2010/10/1,4:33:00,00-39.8900N,118-48.7000E,74,29.72
234,2010/10/1,4:34:00,00-39.9500N,118-48.9300E,75,29.715
235,2010/10/1,4:35:00,00-40.0100N,118-49.1500E,73,29.72
236,2010/10/1,4:36:00,00-40.0800N,118-49.3800E,73,29.716
237,2010/10/1,4:37:00,00-40.1400N,118-49.6000E,73,29.72
238,2010/10/1,4:38:00,00-40.2100N,118-49.8200E,73,29.732
239,2010/10/1,4:39:00,00-40.2700N,118-50.0400E,73,29.738
240,2010/10/1,4:40:00,00-40.3400N,118-50.2600E,73,29.727
241,2010/10/1,4:41:00,00-40.4100N,118-50.4800E,72,29.723
242,2010/10/1,4:42:00,00-40.4800N,118-50.7000E,73,29.722
243,2010/10/1,4:43:00,00-40.5400N,118-50.9300E,73,29.723
244,2010/10/1,4:44:00,00-40.6100N,118-51.1600E,73,29.723
245,2010/10/1,4:45:00,00-40.6800N,118-51.3800E,73,29.709
246,2010/10/1,4:46:00,00-40.7400N,118-51.6100E,74,29.715
247,2010/10/1,4:47:00,00-40.8100N,118-51.8300E,74,29.729
248,2010/10/1,4:48:00,00-40.8700N,118-52.0600E,74,29.726
249,2010/10/1,4:49:00,00-40.9300N,118-52.2800E,74,29.707
250,2010/10/1,4:50:00,00-41.0000N,118-52.5100E,74,29.706
251,2010/10/1,4:51:00,00-41.0700N,118-52.7400E,73,29.704
252,2010/10/1,4:52:00,00-41.1300N,118-52.9600E,73,29.697
253,2010/10/1,4:53:00,00-41.2000N,118-53.1900E,73,29.693
254,2010/10/1,4:54:00,00-41.2700N,118-53.4100E,73,29.691
255,2010/10/1,4:55:00,00-41.3400N,118-53.6500E,74,29.683
256,2010/10/1,4:56:00,00-41.4100N,118-53.8700E,72,29.678
257,2010/10/1,4:57:00,00-41.4900N,118-54.1000E,69,29.67
258,2010/10/1,4:58:00,00-41.5700N,118-54.3200E,70,29.672
259,2010/10/1,4:59:00,00-41.6500N,118-54.5500E,70,29.673
260,2010/10/1,5:00:00,00-41.7300N,118-54.7700E,70,29.67
261,2010/10/1,5:01:00,00-41.8100N,118-55.0000E,71,29.663
262,2010/10/1,5:02:00,00-41.8800N,118-55.2200E,71,29.661
263,2010/10/1,5:03:00,00-41.9600N,118-55.4400E,70,29.654
264,2010/10/1,5:04:00,00-42.0300N,118-55.6600E,70,29.649
265,2010/10/1,5:05:00,00-42.1200N,118-55.9000E,70,29.646
266,2010/10/1,5:06:00,00-42.2000N,118-56.1300E,70,29.64
267,2010/10/1,5:07:00,00-42.2800N,118-56.3600E,71,29.638
268,2010/10/1,5:08:00,00-42.3600N,118-56.5800E,70,29.636
269,2010/10/1,5:09:00,00-42.4300N,118-56.8100E,71,29.64
270,2010/10/1,5:10:00,00-42.5100N,118-57.0300E,71,29.638
271,2010/10/1,5:11:00,00-42.5900N,118-57.2600E,71,29.635
272,2010/10/1,5:12:00,00-42.6700N,118-57.4800E,71,29.625
273,2010/10/1,5:13:00,00-42.7400N,118-57.7000E,71,29.62
274,2010/10/1,5:14:00,00-42.8100N,118-57.9300E,72,29.612
275,2010/10/1,5:15:00,00-42.8900N,118-58.1500E,72,29.6
276,2010/10/1,5:16:00,00-42.9600N,118-58.3800E,72,29.594
277,2010/10/1,5:17:00,00-43.0300N,118-58.6000E,71,29.589
278,2010/10/1,5:18:00,00-43.1100N,118-58.8300E,70,29.583
279,2010/10/1,5:19:00,00-43.1900N,118-59.0500E,70,29.567
280,2010/10/1,5:20:00,00-43.2600N,118-59.2800E,71,29.549
281,2010/10/1,5:21:00,00-43.3400N,118-59.5000E,72,29.523
282,2010/10/1,5:22:00,00-43.4200N,118-59.7200E,68,29.51
283,2010/10/1,5:23:00,00-43.5100N,118-59.9400E,64,29.492
284,2010/10/1,5:24:00,00-43.6300N,119-00.1300E,56,29.475
285,2010/10/1,5:25:00,00-43.7800N,119-00.3000E,45,29.472
286,2010/10/1,5:26:00,00-43.9500N,119-00.4400E,39,29.474
287,2010/10/1,5:27:00,00-44.1400N,119-00.5800E,35,29.481
288,2010/10/1,5:28:00,00-44.3300N,119-00.7000E,31,29.493
289,2010/10/1,5:29:00,00-44.5200N,119-00.8200E,31,29.489
290,2010/10/1,5:30:00,00-44.7200N,119-00.9400E,31,29.485
291,2010/10/1,5:31:00,00-44.9100N,119-01.0600E,31,29.486
292,2010/10/1,5:32:00,00-45.1000N,119-01.1800E,32,29.472
293,2010/10/1,5:33:00,00-45.3000N,119-01.3000E,32,29.487
294,2010/10/1,5:34:00,00-45.4900N,119-01.4200E,32,29.493
295,2010/10/1,5:35:00,00-45.6800N,119-01.5500E,31,29.492
296,2010/10/1,5:36:00,00-45.8800N,119-01.6700E,31,29.478
297,2010/10/1,5:37:00,00-46.0800N,119-01.7900E,31,29.466
298,2010/10/1,5:38:00,00-46.2800N,119-01.9100E,32,29.448
299,2010/10/1,5:39:00,00-46.4700N,119-02.0400E,32,29.434
300,2010/10/1,5:40:00,00-46.6700N,119-02.1600E,32,29.451
301,2010/10/1,5:41:00,00-46.8700N,119-02.2900E,32,29.469
302,2010/10/1,5:42:00,00-47.0700N,119-02.4100E,31,29.474
303,2010/10/1,5:43:00,00-47.2700N,119-02.5300E,30,29.478
304,2010/10/1,5:44:00,00-47.4700N,119-02.6500E,31,29.481
305,2010/10/1,5:45:00,00-47.6700N,119-02.7700E,32,29.483
306,2010/10/1,5:46:00,00-47.8700N,119-02.9000E,32,29.486
307,2010/10/1,5:47:00,00-48.0700N,119-03.0200E,31,29.459
308,2010/10/1,5:48:00,00-48.2700N,119-03.1500E,31,29.425
309,2010/10/1,5:49:00,00-48.4900N,119-03.2800E,31,29.435
310,2010/10/1,5:50:00,00-48.6900N,119-03.4000E,30,29.444
311,2010/10/1,5:51:00,00-48.8900N,119-03.5200E,30,29.417
312,2010/10/1,5:52:00,00-49.0900N,119-03.6400E,30,29.456
313,2010/10/1,5:53:00,00-49.3000N,119-03.7700E,31,29.425
314,2010/10/1,5:54:00,00-49.5000N,119-03.8900E,31,29.443
315,2010/10/1,5:55:00,00-49.7100N,119-04.0100E,30,29.462
316,2010/10/1,5:56:00,00-49.9100N,119-04.1300E,29,29.464
317,2010/10/1,5:57:00,00-50.1200N,119-04.2400E,28,29.457
318,2010/10/1,5:58:00,00-50.3300N,119-04.3500E,29,29.444
319,2010/10/1,5:59:00,00-50.5300N,119-04.4700E,30,29.417
320,2010/10/1,6:00:00,00-50.7300N,119-04.6000E,32,29.402
321,2010/10/1,6:01:00,00-50.9300N,119-04.7200E,32,29.381
322,2010/10/1,6:02:00,00-51.1300N,119-04.8500E,31,29.402
323,2010/10/1,6:03:00,00-51.3300N,119-04.9700E,30,29.409
324,2010/10/1,6:04:00,00-51.5400N,119-05.0900E,30,29.415
325,2010/10/1,6:05:00,00-51.7300N,119-05.2000E,30,29.475
326,2010/10/1,6:06:00,00-51.9400N,119-05.3200E,30,29.515
327,2010/10/1,6:07:00,00-52.1400N,119-05.4400E,30,29.525
328,2010/10/1,6:08:00,00-52.3400N,119-05.5600E,30,29.526
329,2010/10/1,6:09:00,00-52.5400N,119-05.6800E,31,29.527
330,2010/10/1,6:10:00,00-52.7600N,119-05.8100E,30,29.506
331,2010/10/1,6:11:00,00-52.9600N,119-05.9200E,29,29.517
332,2010/10/1,6:12:00,00-53.1600N,119-06.0300E,29,29.51
333,2010/10/1,6:13:00,00-53.3600N,119-06.1500E,29,29.473
334,2010/10/1,6:14:00,00-53.5600N,119-06.2600E,30,29.494
335,2010/10/1,6:15:00,00-53.7500N,119-06.3800E,30,29.47
336,2010/10/1,6:16:00,00-53.9500N,119-06.5000E,30,29.527
337,2010/10/1,6:17:00,00-54.1500N,119-06.6200E,30,29.547
338,2010/10/1,6:18:00,00-54.3500N,119-06.7400E,30,29.55
339,2010/10/1,6:19:00,00-54.5500N,119-06.8500E,32,29.601
340,2010/10/1,6:20:00,00-54.7400N,119-06.9800E,32,29.612
341,2010/10/1,6:21:00,00-54.9300N,119-07.0900E,30,29.621
342,2010/10/1,6:22:00,00-55.1400N,119-07.2000E,28,29.612
343,2010/10/1,6:23:00,00-55.3400N,119-07.3100E,28,29.616
344,2010/10/1,6:24:00,00-55.5400N,119-07.4200E,28,29.618
345,2010/10/1,6:25:00,00-55.7400N,119-07.5300E,27,29.613
346,2010/10/1,6:26:00,00-55.9400N,119-07.6300E,28,29.624
347,2010/10/1,6:27:00,00-56.1400N,119-07.7400E,28,29.623
348,2010/10/1,6:28:00,00-56.3400N,119-07.8500E,28,29.614
349,2010/10/1,6:29:00,00-56.5300N,119-07.9500E,26,29.583
350,2010/10/1,6:30:00,00-56.7400N,119-08.0500E,26,29.552
351,2010/10/1,6:31:00,00-56.9300N,119-08.1500E,27,29.506
352,2010/10/1,6:32:00,00-57.1400N,119-08.2600E,29,29.461
353,2010/10/1,6:33:00,00-57.3300N,119-08.3700E,28,29.467
354,2010/10/1,6:34:00,00-57.5200N,119-08.4700E,27,29.463
355,2010/10/1,6:35:00,00-57.7100N,119-08.5700E,27,29.462
356,2010/10/1,6:36:00,00-57.9000N,119-08.6600E,27,29.468
357,2010/10/1,6:37:00,00-58.0900N,119-08.7600E,27,29.494
358,2010/10/1,6:38:00,00-58.2900N,119-08.8600E,26,29.462
359,2010/10/1,6:39:00,00-58.4700N,119-08.9500E,27,29.375
360,2010/10/1,6:40:00,00-58.6700N,119-09.0500E,28,29.349
361,2010/10/1,6:41:00,00-58.8600N,119-09.1600E,28,29.357
362,2010/10/1,6:42:00,00-59.0400N,119-09.2600E,27,29.371
363,2010/10/1,6:43:00,00-59.2300N,119-09.3500E,27,29.424
364,2010/10/1,6:44:00,00-59.4200N,119-09.4500E,28,29.423
365,2010/10/1,6:45:00,00-59.6100N,119-09.5600E,29,29.429
366,2010/10/1,6:46:00,00-59.8000N,119-09.6600E,25,29.331
367,2010/10/1,6:47:00,01-00.0000N,119-09.7300E,14,29.281
368,2010/10/1,6:48:00,01-00.2100N,119-09.7600E,6,29.268
369,2010/10/1,6:49:00,01-00.4200N,119-09.7700E,3,29.293
370,2010/10/1,6:50:00,01-00.6400N,119-09.7900E,5,29.323
371,2010/10/1,6:51:00,01-00.8500N,119-09.8200E,8,29.307
372,2010/10/1,6:52:00,01-01.0600N,119-09.8600E,10,29.317
373,2010/10/1,6:53:00,01-01.2900N,119-09.9000E,10,29.326
374,2010/10/1,6:54:00,01-01.5000N,119-09.9300E,8,29.326
375,2010/10/1,6:55:00,01-01.7200N,119-09.9600E,6,29.334
376,2010/10/1,6:56:00,01-01.9300N,119-09.9800E,5,29.349
377,2010/10/1,6:57:00,01-02.1500N,119-10.0100E,6,29.357
378,2010/10/1,6:58:00,01-02.3700N,119-10.0300E,6,29.356
379,2010/10/1,6:59:00,01-02.5900N,119-10.0600E,6,29.366
380,2010/10/1,7:00:00,01-02.8100N,119-10.0800E,6,29.377
381,2010/10/1,7:01:00,01-03.0300N,119-10.1100E,7,29.379
382,2010/10/1,7:02:00,01-03.2500N,119-10.1300E,7,29.373
383,2010/10/1,7:03:00,01-03.4600N,119-10.1600E,7,29.394
384,2010/10/1,7:04:00,01-03.6800N,119-10.1900E,6,29.417
385,2010/10/1,7:05:00,01-03.9000N,119-10.2100E,6,29.488
386,2010/10/1,7:06:00,01-04.1200N,119-10.2400E,7,29.449
387,2010/10/1,7:07:00,01-04.3300N,119-10.2700E,7,29.315
388,2010/10/1,7:08:00,01-04.5500N,119-10.2900E,7,29.249
389,2010/10/1,7:09:00,01-04.7600N,119-10.3200E,6,29.238
390,2010/10/1,7:10:00,01-04.9800N,119-10.3500E,6,29.246
391,2010/10/1,7:11:00,01-05.1900N,119-10.3700E,7,29.25
392,2010/10/1,7:12:00,01-05.4000N,119-10.4000E,7,29.242
393,2010/10/1,7:13:00,01-05.6200N,119-10.4300E,7,29.234
394,2010/10/1,7:14:00,01-05.8500N,119-10.4600E,7,29.247
395,2010/10/1,7:15:00,01-06.0600N,119-10.4900E,7,29.262
396,2010/10/1,7:16:00,01-06.2700N,119-10.5200E,7,29.263
397,2010/10/1,7:17:00,01-06.4800N,119-10.5500E,7,29.261
398,2010/10/1,7:18:00,01-06.6900N,119-10.5700E,6,29.286
399,2010/10/1,7:19:00,01-06.9100N,119-10.6000E,7,29.329
400,2010/10/1,7:20:00,01-07.1200N,119-10.6300E,7,29.36
401,2010/10/1,7:21:00,01-07.3400N,119-10.6600E,7,29.358
402,2010/10/1,7:22:00,01-07.5500N,119-10.6900E,7,29.328
403,2010/10/1,7:23:00,01-07.7600N,119-10.7200E,8,29.287
404,2010/10/1,7:24:00,01-07.9700N,119-10.7500E,9,29.299
405,2010/10/1,7:25:00,01-08.1900N,119-10.7900E,9,29.266
406,2010/10/1,7:26:00,01-08.4000N,119-10.8200E,8,29.261
407,2010/10/1,7:27:00,01-08.6200N,119-10.8500E,7,29.258
408,2010/10/1,7:28:00,01-08.8300N,119-10.8800E,7,29.27
409,2010/10/1,7:29:00,01-09.0400N,119-10.9100E,8,29.265
410,2010/10/1,7:30:00,01-09.2600N,119-10.9400E,8,29.269
411,2010/10/1,7:31:00,01-09.4700N,119-10.9700E,7,29.275
412,2010/10/1,7:32:00,01-09.6800N,119-11.0000E,7,29.268
413,2010/10/1,7:33:00,01-09.9000N,119-11.0300E,7,29.266
414,2010/10/1,7:34:00,01-10.1100N,119-11.0600E,7,29.272
415,2010/10/1,7:35:00,01-10.3200N,119-11.0800E,7,29.289
416,2010/10/1,7:36:00,01-10.5600N,119-11.1200E,7,29.317
417,2010/10/1,7:37:00,01-10.7700N,119-11.1500E,8,29.326
418,2010/10/1,7:38:00,01-10.9800N,119-11.1800E,8,29.307
419,2010/10/1,7:39:00,01-11.2000N,119-11.2100E,8,29.271
420,2010/10/1,7:40:00,01-11.4100N,119-11.2400E,8,29.264
421,2010/10/1,7:41:00,01-11.6200N,119-11.2700E,7,29.267
422,2010/10/1,7:42:00,01-11.8400N,119-11.3000E,6,29.287
423,2010/10/1,7:43:00,01-12.0500N,119-11.3200E,7,29.329
424,2010/10/1,7:44:00,01-12.2700N,119-11.3600E,8,29.377
425,2010/10/1,7:45:00,01-12.4800N,119-11.3800E,7,29.441
426,2010/10/1,7:46:00,01-12.7000N,119-11.4200E,8,29.448
427,2010/10/1,7:47:00,01-12.9100N,119-11.4500E,7,29.477
428,2010/10/1,7:48:00,01-13.1300N,119-11.4800E,7,29.478
429,2010/10/1,7:49:00,01-13.3400N,119-11.5000E,7,29.503
430,2010/10/1,7:50:00,01-13.5600N,119-11.5300E,8,29.504
431,2010/10/1,7:51:00,01-13.7700N,119-11.5700E,10,29.514
432,2010/10/1,7:52:00,01-13.9900N,119-11.6200E,11,29.537
433,2010/10/1,7:53:00,01-14.2100N,119-11.6600E,11,29.527
434,2010/10/1,7:54:00,01-14.4300N,119-11.7000E,11,29.523
435,2010/10/1,7:55:00,01-14.6400N,119-11.7500E,11,29.55
436,2010/10/1,7:56:00,01-14.8600N,119-11.7900E,10,29.546
437,2010/10/1,7:57:00,01-15.1000N,119-11.8400E,11,29.555
438,2010/10/1,7:58:00,01-15.3200N,119-11.8800E,10,29.528
439,2010/10/1,7:59:00,01-15.5400N,119-11.9200E,10,29.53